Content
SEND FEEDBACK

Daily
Averages
Monthly
Summary
United States of America

HIRAM, OHIO


Home > North America > United States > Ohio
Elevation: 1094 feet     Latitude: 41 17N     Longitude: 081 09W

WEATHER
 
SELECT A DAY
Number of Records: 85,582;   Date Range: 3/31/11 - 9/30/14
 
SHARE

PRINT THIS DATA

[ ← Previous Day ]
WEATHER ALMANAC - JANUARY 31, 2013
[ Next Day → ]
[ °C ]   °F
Weather ElementAverageHighLow
Temperature21.9 °F24.4 °F (10:35 am)17.1 °F (11:55 pm)
Dewpoint12.6 °F18.5 °F (5:16 pm)6.6 °F (11:55 pm)
Humidity67.9 %85 % (5:16 pm)55 % (7:35 pm)
Barometer29.75 in29.82 in (10:15 pm)29.65 in (10:35 am)
Wind Speed18 mph25.3 mph (12:15 pm)
Wind Gust38 mph (11:55 am)
Weather ElementAverage
Visibility7.5 mi
Wind DirectionWSW (256.6 °)

Weather ElementTotal
Precipitation---
Heating Degree Days44.3 (Base 65)
Averaged from 41 records on January 31, 2013
WEATHER CONDITIONS BREAKOUT
WIND DIRECTION BREAKOUT
WEATHER BY HOUR - JANUARY 31, 2013
[ °C ]   °F
Local TimeTemperatureDewpointHumidityBarometerVisibilityWind DirectionWind SpeedGust SpeedPrecipitationEventsConditions
10:35 AM24.4 °F11.5 °F58 %29.65 in10.0 miWest (260°)23.0 mph29.9 mphOvercast
10:55 AM23.9 °F12.4 °F62 %29.65 in10.0 miWSW (250°)21.9 mph28.8 mphOvercast
11:15 AM23.9 °F12.7 °F62 %29.66 in10.0 miWest (270°)24.2 mph32.2 mphOvercast
11:35 AM23.5 °F14.0 °F67 %29.67 in7.0 miWSW (250°)21.9 mph27.6 mphSnowLight Snow
11:55 AM23.5 °F11.3 °F60 %29.68 in10.0 miWSW (250°)24.2 mph38.0 mphOvercast
12:15 PM22.6 °F11.1 °F61 %29.68 in7.0 miWSW (250°)25.3 mph34.5 mphOvercast
12:35 PM22.6 °F10.9 °F61 %29.69 in10.0 miWSW (250°)17.3 mph35.7 mphOvercast
12:55 PM22.6 °F9.5 °F57 %29.69 in10.0 miWSW (250°)18.4 mph32.2 mphOvercast
1:15 PM22.5 °F11.7 °F63 %29.69 in7.0 miWSW (240°)17.3 mph27.6 mphSnowLight Snow
1:35 PM22.3 °F12.6 °F66 %29.70 in7.0 miWSW (250°)19.6 mph28.8 mphSnowLight Snow
1:55 PM22.3 °F11.8 °F64 %29.70 in10.0 miWest (260°)24.2 mph33.4 mphOvercast
2:15 PM21.9 °F13.1 °F69 %29.71 in4.0 miWSW (240°)23.0 mph29.9 mphSnowLight Snow
2:35 PM22.5 °F12.6 °F66 %29.71 in10.0 miWSW (250°)17.3 mph28.8 mphOvercast
2:55 PM22.6 °F12.0 °F64 %29.72 in10.0 miWSW (250°)21.9 mph29.9 mphOvercast
3:15 PM22.1 °F14.0 °F71 %29.73 in5.0 miWSW (250°)20.7 mph28.8 mphSnowLight Snow
3:35 PM21.9 °F15.4 °F76 %29.73 in5.0 miWest (260°)15.0 mph25.3 mphSnowLight Snow
3:55 PM22.5 °F15.4 °F74 %29.73 in7.0 miWest (260°)18.4 mph25.3 mphOvercast
4:15 PM23.0 °F14.0 °F68 %29.74 in7.0 miWest (270°)15.0 mph27.6 mphSnowLight Snow
4:35 PM22.8 °F15.6 °F74 %29.74 in3.0 miWest (260°)13.8 mph20.7 mphSnowLight Snow
4:55 PM22.8 °F17.6 °F80 %29.74 in3.0 miWSW (240°)9.2 mph16.1 mphSnowLight Snow
5:16 PM22.5 °F18.5 °F85 %29.75 in1.0 miWest (270°)20.7 mph26.5 mphSnowLight Snow
5:35 PM22.6 °F18.5 °F84 %29.75 in2.5 miWSW (250°)13.8 mph23.0 mphSnowLight Snow
5:55 PM22.6 °F18.0 °F82 %29.75 in5.0 miWSW (250°)12.7 mph23.0 mphSnowLight Snow
6:15 PM22.6 °F16.3 °F77 %29.75 in10.0 miWSW (250°)15.0 mph18.4 mphMostly Cloudy
6:35 PM22.6 °F15.6 °F74 %29.76 in10.0 miWSW (250°)11.5 mph17.3 mphMostly Cloudy
6:56 PM23.0 °F13.1 °F66 %29.77 in7.0 miWSW (250°)15.0 mph27.6 mphSnowLight Snow
7:15 PM23.0 °F10.2 °F58 %29.77 in10.0 miWSW (250°)19.6 mph26.5 mphMostly Cloudy
7:35 PM22.6 °F8.6 °F55 %29.78 in10.0 miWest (260°)21.9 mph29.9 mphScattered Clouds
7:56 PM22.6 °F9.0 °F56 %29.78 in10.0 miWest (260°)21.9 mph29.9 mphMostly Cloudy
8:15 PM22.6 °F9.9 °F58 %29.79 in10.0 miWest (260°)16.1 mph27.6 mphOvercast
8:35 PM22.5 °F10.4 °F60 %29.79 in10.0 miWest (270°)17.3 mph28.8 mphOvercast
8:55 PM21.2 °F13.5 °F72 %29.80 in7.0 miWest (270°)19.6 mph25.3 mphSnowLight Snow
9:15 PM21.6 °F11.3 °F65 %29.80 in10.0 miWest (260°)17.3 mph26.5 mphOvercast
9:35 PM20.7 °F12.7 °F71 %29.81 in3.0 miWest (270°)24.2 mph31.1 mphSnowLight Snow
9:55 PM19.8 °F12.2 °F72 %29.81 in7.0 miWest (260°)17.3 mph23.0 mphOvercast
10:15 PM19.0 °F13.5 °F79 %29.82 in2.0 miWest (260°)13.8 mph23.0 mphSnowLight Snow
10:35 PM18.9 °F14.0 °F81 %29.82 in4.0 miWest (270°)15.0 mphSnowLight Snow
10:55 PM18.5 °F10.0 °F70 %29.82 in7.0 miWest (270°)17.3 mph26.5 mphOvercast
11:15 PM18.1 °F9.0 °F67 %29.82 in10.0 miWest (260°)11.5 mph21.9 mphMostly Cloudy
11:35 PM17.6 °F7.7 °F65 %29.82 in10.0 miWest (260°)11.5 mph20.7 mphMostly Cloudy
11:55 PM17.1 °F6.6 °F64 %29.80 in10.0 miWest (260°)12.7 mph18.4 mphScattered Clouds
Hourly data recorded from KPOV, located miles away from Hiram, Ohio







STORIES FROM OUR PARTNERS